Tracking 19638 objects as of 22-Apr-2019
HD Live streaming from Space Station
objects crossing your sky now

SL-16 DEB

Track SL-16 DEB now!
10-day predictions


NORAD ID: 31799
Int'l Code: 2007-029F
Perigee: 852.6 km
Apogee: 1,191.3 km
Inclination: 70.9 °
Period: 105.4 minutes
Semi major axis: 7392 km
RCS: 0.0827 m2 (small)
Launch date: June 29, 2007
Source: Commonwealth of Independent States (former USSR) (CIS)
Launch site: TYURATAM MISSILE AND SPACE COMPLEX (TTMTR)

Note: This is SATELLITE DEBRIS
aabbcc
Your satellite tracking list
Your tracking list is empty




NASA's NSSDC Master Catalog

Two Line Element Set (TLE):
1 31799U 07029F   19111.85493993 -.00000127  00000-0 -86241-4 0  9997
2 31799  70.9429  21.5729 0229026 204.2942 223.6439 13.65769929588650
Source of the keplerian elements: AFSPC